Radiation Dose at Monitoring Post of Fukushima Daini Nuclear Power Station
Date,Time,MP-1(microSv/h),MP-2(microSv/h),MP-3(microSv/h),MP-4(microSv/h),MP-5(microSv/h),MP-6(microSv/h),MP-7(microSv/h),Wind Direction,Wind Velocity(m/s),Rain
2018/01/06,00:00,0.341,0.208,0.348,0.325,0.306,0.172,0.103,northwest,4.2,No
2018/01/06,00:10,0.343,0.208,0.349,0.325,0.307,0.172,0.103,northwest,3.0,No
2018/01/06,00:20,0.342,0.208,0.349,0.326,0.307,0.171,0.103,west-northwest,1.6,No
2018/01/06,00:30,0.342,0.207,0.348,0.326,0.306,0.173,0.103,west-northwest,1.1,No
2018/01/06,00:40,0.342,0.209,0.348,0.326,0.306,0.172,0.103,-,CALM,No
2018/01/06,00:50,0.343,0.208,0.348,0.325,0.306,0.172,0.103,west-southwest,0.6,No
2018/01/06,01:00,0.343,0.207,0.349,0.325,0.304,0.171,0.102,west-northwest,1.4,No
2018/01/06,01:10,0.343,0.208,0.348,0.325,0.305,0.171,0.102,northwest,2.0,No
2018/01/06,01:20,0.343,0.207,0.348,0.325,0.305,0.172,0.102,northwest,2.2,No
2018/01/06,01:30,0.343,0.208,0.348,0.326,0.306,0.171,0.103,northwest,2.7,No
2018/01/06,01:40,0.342,0.208,0.348,0.325,0.306,0.171,0.102,northwest,3.1,No
2018/01/06,01:50,0.345,0.207,0.347,0.324,0.305,0.172,0.102,northwest,4.1,No
2018/01/06,02:00,0.342,0.208,0.348,0.325,0.307,0.172,0.102,northwest,4.2,No
2018/01/06,02:10,0.342,0.208,0.348,0.325,0.307,0.172,0.103,northwest,4.6,No
2018/01/06,02:20,0.343,0.207,0.348,0.325,0.306,0.172,0.102,northwest,3.5,No
2018/01/06,02:30,0.342,0.207,0.348,0.325,0.305,0.170,0.102,west-northwest,3.0,No
2018/01/06,02:40,0.342,0.208,0.348,0.324,0.305,0.171,0.102,west-northwest,3.0,No
2018/01/06,02:50,0.342,0.208,0.347,0.325,0.306,0.171,0.102,west-northwest,3.2,No
2018/01/06,03:00,0.343,0.208,0.347,0.325,0.307,0.172,0.103,west,3.9,No
2018/01/06,03:10,0.342,0.207,0.346,0.325,0.305,0.172,0.103,west-northwest,4.0,No
2018/01/06,03:20,0.343,0.208,0.349,0.326,0.305,0.172,0.102,west,4.2,No
2018/01/06,03:30,0.343,0.207,0.349,0.326,0.305,0.171,0.102,west,4.1,No
2018/01/06,03:40,0.342,0.208,0.348,0.325,0.307,0.172,0.103,northwest,5.0,No
2018/01/06,03:50,0.343,0.208,0.348,0.326,0.306,0.171,0.102,northwest,5.2,No
2018/01/06,04:00,0.343,0.207,0.347,0.326,0.306,0.171,0.102,northwest,5.3,No
2018/01/06,04:10,0.341,0.207,0.347,0.325,0.307,0.172,0.103,northwest,4.3,No
2018/01/06,04:20,0.342,0.207,0.347,0.324,0.307,0.172,0.103,north-northwest,4.5,No
2018/01/06,04:30,0.341,0.207,0.348,0.325,0.306,0.172,0.103,north-northwest,4.5,No
2018/01/06,04:40,0.343,0.207,0.348,0.324,0.306,0.172,0.102,north-northwest,4.0,No
2018/01/06,04:50,0.342,0.207,0.347,0.326,0.305,0.172,0.102,north-northwest,4.0,No
2018/01/06,05:00,0.343,0.208,0.347,0.325,0.306,0.171,0.103,north-northwest,3.7,No
2018/01/06,05:10,0.342,0.207,0.348,0.325,0.308,0.170,0.102,north-northwest,4.0,No
2018/01/06,05:20,0.343,0.208,0.347,0.326,0.307,0.172,0.102,north-northwest,5.9,No
2018/01/06,05:30,0.342,0.208,0.348,0.325,0.305,0.171,0.102,north-northwest,5.4,No
2018/01/06,05:40,0.343,0.208,0.347,0.325,0.307,0.171,0.103,north-northwest,3.1,No
2018/01/06,05:50,0.342,0.207,0.348,0.326,0.307,0.170,0.102,north-northwest,1.9,No
2018/01/06,06:00,0.342,0.209,0.347,0.326,0.307,0.171,0.103,northwest,1.9,No
2018/01/06,06:10,0.342,0.208,0.348,0.326,0.306,0.172,0.102,west-northwest,1.7,No
2018/01/06,06:20,0.343,0.207,0.347,0.324,0.304,0.172,0.103,west-northwest,1.5,No
2018/01/06,06:30,0.344,0.207,0.348,0.325,0.308,0.173,0.103,northwest,1.7,No
2018/01/06,06:40,0.341,0.208,0.347,0.326,0.307,0.172,0.103,northwest,0.9,No
2018/01/06,06:50,0.341,0.208,0.349,0.326,0.306,0.170,0.103,north-northwest,1.4,No
2018/01/06,07:00,0.343,0.207,0.347,0.323,0.307,0.171,0.104,north-northwest,2.2,No
2018/01/06,07:10,0.343,0.209,0.348,0.324,0.305,0.172,0.103,north-northwest,3.5,No
2018/01/06,07:20,0.342,0.208,0.347,0.325,0.306,0.171,0.102,northwest,4.5,No
2018/01/06,07:30,0.340,0.208,0.348,0.327,0.307,0.171,0.103,north-northwest,4.3,No
2018/01/06,07:40,0.342,0.207,0.350,0.326,0.306,0.172,0.103,north-northwest,3.4,No
2018/01/06,07:50,0.343,0.207,0.350,0.324,0.306,0.173,0.103,north-northwest,3.5,No
2018/01/06,08:00,0.342,0.209,0.349,0.325,0.308,0.173,0.103,north-northwest,4.4,No
2018/01/06,08:10,0.343,0.208,0.347,0.325,0.308,0.173,0.103,northwest,3.5,No
2018/01/06,08:20,0.343,0.207,0.348,0.326,0.307,0.173,0.102,west-northwest,2.9,No
2018/01/06,08:30,0.343,0.207,0.347,0.326,0.305,0.172,0.102,west,2.7,No
2018/01/06,08:40,0.342,0.207,0.349,0.325,0.305,0.171,0.103,west,3.1,No
2018/01/06,08:50,0.342,0.207,0.347,0.325,0.308,0.171,0.102,west-northwest,2.5,No
2018/01/06,09:00,0.343,0.208,0.346,0.325,0.305,0.171,0.102,west,6.4,No
2018/01/06,09:10,0.342,0.209,0.347,0.326,0.305,0.171,0.102,west,7.0,No
2018/01/06,09:20,0.341,0.208,0.347,0.325,0.306,0.171,0.102,west,7.6,No
2018/01/06,09:30,0.342,0.208,0.348,0.325,0.307,0.171,0.103,west-northwest,6.4,No
2018/01/06,09:40,0.342,0.207,0.348,0.325,0.306,0.171,0.102,west-northwest,6.2,No
2018/01/06,09:50,0.343,0.208,0.348,0.326,0.305,0.171,0.103,west,4.6,No
2018/01/06,10:00,0.342,0.209,0.349,0.325,0.307,0.171,0.103,west-northwest,4.2,No
2018/01/06,10:10,0.343,0.208,0.348,0.324,0.307,0.172,0.102,west-northwest,2.7,No
2018/01/06,10:20,0.344,0.207,0.346,0.325,0.307,0.170,0.102,west-northwest,3.0,No
2018/01/06,10:30,0.342,0.208,0.347,0.327,0.307,0.172,0.102,west-northwest,1.5,No
2018/01/06,10:40,0.343,0.208,0.348,0.326,0.308,0.171,0.102,west-southwest,0.9,No
2018/01/06,10:50,0.343,0.208,0.350,0.325,0.306,0.171,0.102,-,CALM,No
2018/01/06,11:00,0.343,0.208,0.348,0.326,0.307,0.171,0.102,west-southwest,1.2,No
2018/01/06,11:10,0.343,0.209,0.348,0.326,0.306,0.172,0.103,west,1.4,No
2018/01/06,11:20,0.342,0.208,0.347,0.327,0.307,0.172,0.103,west-northwest,1.6,No
2018/01/06,11:30,0.343,0.207,0.348,0.325,0.306,0.172,0.102,west-southwest,0.8,No
2018/01/06,11:40,0.342,0.207,0.346,0.325,0.307,0.172,0.102,west-northwest,0.6,No
2018/01/06,11:50,0.341,0.207,0.347,0.324,0.305,0.172,0.103,north-northeast,1.1,No
2018/01/06,12:00,0.342,0.207,0.347,0.325,0.306,0.172,0.102,-,CALM,No
2018/01/06,12:10,0.341,0.208,0.346,0.324,0.308,0.171,0.102,east,1.4,No
2018/01/06,12:20,0.342,0.207,0.348,0.327,0.307,0.172,0.102,east,1.6,No
2018/01/06,12:30,0.343,0.206,0.349,0.325,0.307,0.171,0.103,east-southeast,1.3,No
2018/01/06,12:40,0.341,0.207,0.346,0.326,0.307,0.172,0.103,east,1.4,No
2018/01/06,12:50,0.343,0.208,0.348,0.326,0.306,0.172,0.103,southeast,1.5,No
2018/01/06,13:00,0.343,0.207,0.347,0.326,0.306,0.171,0.102,south,2.7,No
2018/01/06,13:10,0.342,0.208,0.347,0.325,0.307,0.171,0.103,west-southwest,2.3,No
2018/01/06,13:20,0.343,0.207,0.346,0.324,0.307,0.172,0.103,west,6.6,No
2018/01/06,13:30,0.340,0.207,0.348,0.324,0.308,0.172,0.102,west-northwest,4.8,No
2018/01/06,13:40,0.342,0.207,0.346,0.325,0.308,0.172,0.101,west,6.2,No
2018/01/06,13:50,0.342,0.207,0.348,0.326,0.306,0.171,0.102,west-northwest,5.2,No
2018/01/06,14:00,0.342,0.207,0.347,0.324,0.308,0.172,0.102,west,5.7,No
2018/01/06,14:10,0.343,0.207,0.347,0.326,0.305,0.171,0.103,west-northwest,7.1,No
2018/01/06,14:20,0.343,0.208,0.349,0.324,0.307,0.172,0.103,west-northwest,6.8,No
2018/01/06,14:30,0.343,0.208,0.349,0.326,0.305,0.171,0.102,west-northwest,6.3,No
2018/01/06,14:40,0.342,0.208,0.348,0.326,0.306,0.171,0.102,west-northwest,7.3,No
2018/01/06,14:50,0.344,0.207,0.349,0.326,0.308,0.170,0.102,west,6.1,No
2018/01/06,15:00,0.343,0.208,0.349,0.324,0.308,0.171,0.103,west,6.4,No
2018/01/06,15:10,0.342,0.208,0.348,0.326,0.309,0.171,0.103,west,4.2,No
2018/01/06,15:20,0.343,0.208,0.346,0.325,0.309,0.171,0.102,west,5.9,No
2018/01/06,15:30,0.344,0.208,0.349,0.326,0.309,0.172,0.103,west,3.5,No
2018/01/06,15:40,0.344,0.208,0.348,0.326,0.308,0.171,0.103,west-northwest,2.8,No
2018/01/06,15:50,0.339,0.209,0.348,0.325,0.309,0.171,0.102,west,6.7,No
2018/01/06,16:00,0.343,0.208,0.349,0.325,0.308,0.171,0.102,west,6.6,No
2018/01/06,16:10,0.345,0.207,0.348,0.327,0.307,0.172,0.102,west,3.1,No
2018/01/06,16:20,0.343,0.208,0.349,0.327,0.308,0.172,0.102,west,4.8,No
2018/01/06,16:30,0.343,0.209,0.350,0.327,0.309,0.172,0.103,west,5.2,No
2018/01/06,16:40,0.343,0.208,0.347,0.324,0.306,0.172,0.102,west-northwest,4.8,No
2018/01/06,16:50,0.344,0.208,0.348,0.327,0.306,0.171,0.103,west,6.4,No
2018/01/06,17:00,0.343,0.209,0.348,0.325,0.309,0.173,0.102,west-southwest,3.3,No
2018/01/06,17:10,0.341,0.208,0.348,0.325,0.308,0.172,0.102,west,3.2,No
2018/01/06,17:20,0.343,0.208,0.348,0.326,0.308,0.172,0.102,west-southwest,4.4,No
2018/01/06,17:30,0.343,0.208,0.349,0.326,0.307,0.172,0.102,west-southwest,4.6,No
2018/01/06,17:40,0.342,0.208,0.350,0.325,0.307,0.172,0.102,west-southwest,4.0,No
2018/01/06,17:50,0.341,0.208,0.348,0.324,0.308,0.172,0.102,west-southwest,4.8,No
2018/01/06,18:00,0.342,0.208,0.348,0.326,0.306,0.172,0.103,west-northwest,3.2,No
2018/01/06,18:10,0.344,0.208,0.348,0.327,0.305,0.172,0.102,north-northwest,2.5,No
2018/01/06,18:20,0.341,0.208,0.348,0.326,0.307,0.172,0.103,north,2.2,No
2018/01/06,18:30,0.342,0.208,0.345,0.325,0.308,0.172,0.102,north-northwest,1.9,No
2018/01/06,18:40,0.343,0.208,0.349,0.326,0.307,0.171,0.103,north-northwest,2.9,No
2018/01/06,18:50,0.342,0.207,0.348,0.326,0.306,0.171,0.102,north-northwest,2.4,No
2018/01/06,19:00,0.342,0.208,0.348,0.325,0.306,0.172,0.102,west-northwest,2.8,No
2018/01/06,19:10,0.342,0.209,0.348,0.325,0.307,0.171,0.102,west,4.6,No
2018/01/06,19:20,0.342,0.208,0.348,0.326,0.306,0.173,0.103,west,4.9,No
2018/01/06,19:30,0.344,0.207,0.349,0.325,0.307,0.172,0.102,west-southwest,5.1,No
2018/01/06,19:40,0.344,0.209,0.348,0.326,0.308,0.171,0.102,west,5.9,No
2018/01/06,19:50,0.343,0.208,0.347,0.326,0.308,0.172,0.103,west-southwest,6.2,No
2018/01/06,20:00,0.344,0.210,0.348,0.325,0.306,0.172,0.102,west,8.1,No
2018/01/06,20:10,0.344,0.208,0.349,0.325,0.307,0.171,0.102,west,8.5,No
2018/01/06,20:20,0.342,0.207,0.348,0.325,0.306,0.172,0.103,west,8.1,No
2018/01/06,20:30,0.343,0.209,0.350,0.325,0.308,0.172,0.102,west,7.0,No
2018/01/06,20:40,0.343,0.208,0.349,0.326,0.308,0.172,0.103,west,7.6,No
2018/01/06,20:50,0.342,0.209,0.348,0.326,0.306,0.171,0.102,west-northwest,7.7,No
2018/01/06,21:00,0.345,0.208,0.348,0.327,0.307,0.171,0.102,west-northwest,7.5,No
2018/01/06,21:10,0.342,0.208,0.348,0.325,0.307,0.173,0.103,west-northwest,6.8,No
2018/01/06,21:20,0.344,0.207,0.349,0.325,0.308,0.172,0.103,west-northwest,5.6,No
2018/01/06,21:30,0.343,0.207,0.348,0.326,0.306,0.172,0.102,west-northwest,5.5,No
2018/01/06,21:40,0.343,0.208,0.348,0.326,0.307,0.172,0.102,northwest,6.4,No
2018/01/06,21:50,0.343,0.208,0.349,0.326,0.307,0.172,0.103,north,3.6,No
2018/01/06,22:00,0.343,0.209,0.348,0.326,0.306,0.172,0.102,north-northwest,3.5,No
2018/01/06,22:10,0.344,0.208,0.349,0.326,0.307,0.172,0.101,north,2.5,No
2018/01/06,22:20,0.343,0.208,0.348,0.325,0.307,0.172,0.102,northwest,1.9,No
2018/01/06,22:30,0.343,0.208,0.350,0.326,0.306,0.172,0.102,north-northwest,2.7,No
2018/01/06,22:40,0.345,0.207,0.349,0.326,0.307,0.172,0.103,northwest,1.8,No
2018/01/06,22:50,0.343,0.208,0.349,0.326,0.307,0.172,0.102,north-northwest,3.4,No
2018/01/06,23:00,0.342,0.209,0.348,0.325,0.306,0.172,0.102,west-northwest,4.2,No
2018/01/06,23:10,0.343,0.208,0.350,0.326,0.305,0.172,0.103,north,1.0,No
2018/01/06,23:20,0.343,0.208,0.348,0.326,0.305,0.172,0.103,west-northwest,5.2,No
2018/01/06,23:30,0.344,0.207,0.348,0.326,0.306,0.172,0.103,northwest,2.6,No
2018/01/06,23:40,0.344,0.208,0.348,0.326,0.307,0.172,0.102,northwest,4.4,No
2018/01/06,23:50,0.344,0.208,0.349,0.326,0.308,0.172,0.102,northwest,4.0,No
